Time,TemperatureF,DewpointF,PressureIn,WindDirection,WindDirectionDegrees,WindSpeedMPH,WindSpeedGustMPH,Humidity,HourlyPrecipIn,Conditions,Clouds,dailyrainin,SolarRadiationWatts/m^2,SoftwareType,DateUTC
2013-08-12 00:43:00,82.0,53.0,-100.00,SE,145,5.0,12.0,37,0.00,,,0.00,1.000000,,2013-08-12 07:43:00,
2013-08-12 00:52:00,82.0,53.0,-100.00,SE,145,5.0,12.0,37,0.00,,,0.00,1.000000,,2013-08-12 07:52:00,
2013-08-12 01:02:00,82.0,53.0,-100.00,SE,145,5.0,12.0,37,0.00,,,0.00,1.000000,,2013-08-12 08:02:00,
2013-08-12 01:11:00,82.0,53.0,-100.00,SE,145,5.0,12.0,37,0.00,,,0.00,1.000000,,2013-08-12 08:11:00,
2013-08-12 01:43:00,78.0,54.0,-100.00,WSW,256,1.0,7.0,43,0.00,,,0.00,1.000000,,2013-08-12 08:43:00,
2013-08-12 01:53:00,78.0,54.0,-100.00,WSW,256,1.0,7.0,43,0.00,,,0.00,1.000000,,2013-08-12 08:53:00,
2013-08-12 02:02:00,78.0,54.0,-100.00,WSW,256,1.0,7.0,43,0.00,,,0.00,1.000000,,2013-08-12 09:02:00,
2013-08-12 02:11:00,78.0,54.0,-100.00,WSW,256,1.0,7.0,43,0.00,,,0.00,1.000000,,2013-08-12 09:11:00,
2013-08-12 02:43:00,79.0,55.0,-100.00,SSW,200,2.0,5.0,44,0.00,,,0.00,1.000000,,2013-08-12 09:43:00,
2013-08-12 02:53:00,79.0,55.0,-100.00,SSW,200,2.0,5.0,44,0.00,,,0.00,1.000000,,2013-08-12 09:53:00,
2013-08-12 03:01:00,79.0,55.0,-100.00,SSW,200,2.0,5.0,44,0.00,,,0.00,1.000000,,2013-08-12 10:01:00,
2013-08-12 03:11:00,79.0,55.0,-100.00,SSW,200,2.0,5.0,44,0.00,,,0.00,1.000000,,2013-08-12 10:11:00,
2013-08-12 03:43:00,78.0,55.0,-100.00,South,176,3.0,5.0,45,0.00,,,0.00,1.000000,,2013-08-12 10:43:00,
2013-08-12 03:52:00,78.0,55.0,-100.00,South,176,3.0,5.0,45,0.00,,,0.00,1.000000,,2013-08-12 10:52:00,
2013-08-12 04:02:00,78.0,55.0,-100.00,South,176,3.0,5.0,45,0.00,,,0.00,1.000000,,2013-08-12 11:02:00,
2013-08-12 04:12:00,78.0,55.0,-100.00,South,176,3.0,5.0,45,0.00,,,0.00,1.000000,,2013-08-12 11:12:00,
2013-08-12 04:42:00,74.0,54.0,-100.00,West,259,0.0,4.0,50,0.00,,,0.00,1.000000,,2013-08-12 11:42:00,
2013-08-12 04:53:00,74.0,54.0,-100.00,West,259,0.0,4.0,50,0.00,,,0.00,1.000000,,2013-08-12 11:53:00,
2013-08-12 05:02:00,74.0,54.0,-100.00,West,259,0.0,4.0,50,0.00,,,0.00,1.000000,,2013-08-12 12:02:00,
2013-08-12 05:11:00,74.0,54.0,-100.00,West,259,0.0,4.0,50,0.00,,,0.00,1.000000,,2013-08-12 12:11:00,
2013-08-12 05:43:00,75.0,49.0,-100.00,ESE,104,0.0,4.0,40,0.00,,,0.00,1.000000,,2013-08-12 12:43:00,
2013-08-12 05:52:00,75.0,49.0,-100.00,ESE,104,0.0,4.0,40,0.00,,,0.00,1.000000,,2013-08-12 12:52:00,
2013-08-12 06:01:00,75.0,49.0,-100.00,ESE,104,0.0,4.0,40,0.00,,,0.00,1.000000,,2013-08-12 13:01:00,
2013-08-12 06:11:00,75.0,49.0,-100.00,ESE,104,0.0,4.0,40,0.00,,,0.00,1.000000,,2013-08-12 13:11:00,
2013-08-12 06:43:00,74.0,49.0,-100.00,SSE,159,0.0,0.0,42,0.00,,,0.00,3.000000,,2013-08-12 13:43:00,
2013-08-12 06:53:00,74.0,49.0,-100.00,SSE,159,0.0,0.0,42,0.00,,,0.00,3.000000,,2013-08-12 13:53:00,
2013-08-12 07:01:00,74.0,49.0,-100.00,SSE,159,0.0,0.0,42,0.00,,,0.00,3.000000,,2013-08-12 14:01:00,
2013-08-12 07:11:00,74.0,49.0,-100.00,SSE,159,0.0,0.0,42,0.00,,,0.00,3.000000,,2013-08-12 14:11:00,
2013-08-12 08:43:00,83.0,54.0,-100.00,South,171,6.0,8.0,37,0.00,,,0.00,324.000000,,2013-08-12 15:43:00,
2013-08-12 08:52:00,83.0,54.0,-100.00,South,171,6.0,8.0,37,0.00,,,0.00,324.000000,,2013-08-12 15:52:00,
2013-08-12 09:01:00,83.0,54.0,-100.00,South,171,6.0,8.0,37,0.00,,,0.00,324.000000,,2013-08-12 16:01:00,
2013-08-12 09:11:00,83.0,54.0,-100.00,South,171,6.0,8.0,37,0.00,,,0.00,324.000000,,2013-08-12 16:11:00,
2013-08-12 09:43:00,87.0,58.0,-100.00,South,178,4.0,8.0,38,0.00,,,0.00,546.000000,,2013-08-12 16:43:00,
2013-08-12 09:53:00,87.0,58.0,-100.00,South,178,4.0,8.0,38,0.00,,,0.00,546.000000,,2013-08-12 16:53:00,
2013-08-12 10:01:00,87.0,58.0,-100.00,South,178,4.0,8.0,38,0.00,,,0.00,546.000000,,2013-08-12 17:01:00,
2013-08-12 10:11:00,87.0,58.0,-100.00,South,178,4.0,8.0,38,0.00,,,0.00,546.000000,,2013-08-12 17:11:00,
2013-08-12 10:43:00,92.0,59.0,-100.00,SSW,213,3.0,8.0,33,0.00,,,0.00,746.000000,,2013-08-12 17:43:00,
2013-08-12 10:52:00,92.0,59.0,-100.00,SSW,213,3.0,8.0,33,0.00,,,0.00,746.000000,,2013-08-12 17:52:00,
2013-08-12 11:01:00,92.0,59.0,-100.00,SSW,213,3.0,8.0,33,0.00,,,0.00,746.000000,,2013-08-12 18:01:00,
2013-08-12 11:11:00,92.0,59.0,-100.00,SSW,213,3.0,8.0,33,0.00,,,0.00,746.000000,,2013-08-12 18:11:00,
2013-08-12 11:43:00,96.0,57.0,-100.00,South,188,5.0,8.0,27,0.00,,,0.00,902.000000,,2013-08-12 18:43:00,
2013-08-12 11:52:00,96.0,57.0,-100.00,South,188,5.0,8.0,27,0.00,,,0.00,902.000000,,2013-08-12 18:52:00,
2013-08-12 12:01:00,96.0,57.0,-100.00,South,188,5.0,8.0,27,0.00,,,0.00,902.000000,,2013-08-12 19:01:00,
2013-08-12 12:11:00,96.0,57.0,-100.00,South,188,5.0,8.0,27,0.00,,,0.00,902.000000,,2013-08-12 19:11:00,
2013-08-12 12:43:00,100.0,54.0,-100.00,SSW,196,5.0,11.0,22,0.00,,,0.00,1000.000000,,2013-08-12 19:43:00,
2013-08-12 12:52:00,100.0,54.0,-100.00,SSW,196,5.0,11.0,22,0.00,,,0.00,1000.000000,,2013-08-12 19:52:00,
2013-08-12 13:02:00,100.0,54.0,-100.00,SSW,196,5.0,11.0,22,0.00,,,0.00,1000.000000,,2013-08-12 20:02:00,
2013-08-12 13:11:00,100.0,54.0,-100.00,SSW,196,5.0,11.0,22,0.00,,,0.00,1000.000000,,2013-08-12 20:11:00,
2013-08-12 13:42:00,104.0,50.0,-100.00,SSE,152,5.0,13.0,17,0.00,,,0.00,1031.000000,,2013-08-12 20:42:00,
2013-08-12 13:52:00,104.0,50.0,-100.00,SSE,152,5.0,13.0,17,0.00,,,0.00,1031.000000,,2013-08-12 20:52:00,
2013-08-12 14:01:00,104.0,50.0,-100.00,SSE,152,5.0,13.0,17,0.00,,,0.00,1031.000000,,2013-08-12 21:01:00,
2013-08-12 14:12:00,104.0,50.0,-100.00,SSE,152,5.0,13.0,17,0.00,,,0.00,1031.000000,,2013-08-12 21:12:00,
2013-08-12 14:43:00,105.0,42.0,-100.00,SSE,163,7.0,19.0,12,0.00,,,0.00,1001.000000,,2013-08-12 21:43:00,
2013-08-12 14:52:00,105.0,42.0,-100.00,SSE,163,7.0,19.0,12,0.00,,,0.00,1001.000000,,2013-08-12 21:52:00,
2013-08-12 15:02:00,105.0,42.0,-100.00,SSE,163,7.0,19.0,12,0.00,,,0.00,1001.000000,,2013-08-12 22:02:00,
2013-08-12 15:11:00,105.0,42.0,-100.00,SSE,163,7.0,19.0,12,0.00,,,0.00,1001.000000,,2013-08-12 22:11:00,
2013-08-12 15:43:00,105.0,42.0,-100.00,South,170,7.0,13.0,12,0.00,,,0.00,892.000000,,2013-08-12 22:43:00,
2013-08-12 15:53:00,105.0,42.0,-100.00,South,170,7.0,13.0,12,0.00,,,0.00,892.000000,,2013-08-12 22:53:00,
2013-08-12 16:02:00,105.0,42.0,-100.00,South,170,7.0,13.0,12,0.00,,,0.00,892.000000,,2013-08-12 23:02:00,
2013-08-12 16:11:00,105.0,42.0,-100.00,South,170,7.0,13.0,12,0.00,,,0.00,892.000000,,2013-08-12 23:11:00,
2013-08-12 16:43:00,105.0,40.0,-100.00,SE,136,6.0,14.0,11,0.00,,,0.00,730.000000,,2013-08-12 23:43:00,
2013-08-12 16:53:00,105.0,40.0,-100.00,SE,136,6.0,14.0,11,0.00,,,0.00,730.000000,,2013-08-12 23:53:00,
2013-08-12 17:02:00,105.0,40.0,-100.00,SE,136,6.0,14.0,11,0.00,,,0.00,730.000000,,2013-08-13 00:02:00,
2013-08-12 17:12:00,105.0,40.0,-100.00,SE,136,6.0,14.0,11,0.00,,,0.00,730.000000,,2013-08-13 00:12:00,
2013-08-12 17:45:00,106.0,38.0,-100.00,SSE,153,6.0,14.0,10,0.00,,,0.00,533.000000,,2013-08-13 00:45:00,
2013-08-12 17:53:00,106.0,38.0,-100.00,SSE,153,6.0,14.0,10,0.00,,,0.00,533.000000,,2013-08-13 00:53:00,
2013-08-12 18:03:00,106.0,38.0,-100.00,SSE,153,6.0,14.0,10,0.00,,,0.00,533.000000,,2013-08-13 01:03:00,
2013-08-12 18:13:00,106.0,38.0,-100.00,SSE,153,6.0,14.0,10,0.00,,,0.00,533.000000,,2013-08-13 01:13:00,
2013-08-12 18:42:00,104.0,37.0,-100.00,SSW,197,6.0,12.0,10,0.00,,,0.00,306.000000,,2013-08-13 01:42:00,
2013-08-12 18:55:00,104.0,37.0,-100.00,SSW,197,6.0,12.0,10,0.00,,,0.00,306.000000,,2013-08-13 01:55:00,
2013-08-12 19:02:00,104.0,37.0,-100.00,SSW,197,6.0,12.0,10,0.00,,,0.00,306.000000,,2013-08-13 02:02:00,
2013-08-12 19:11:00,104.0,37.0,-100.00,SSW,197,6.0,12.0,10,0.00,,,0.00,306.000000,,2013-08-13 02:11:00,
2013-08-12 19:43:00,100.0,42.0,-100.00,WNW,292,5.0,8.0,14,0.00,,,0.00,100.000000,,2013-08-13 02:43:00,
2013-08-12 19:52:00,100.0,42.0,-100.00,WNW,292,5.0,8.0,14,0.00,,,0.00,100.000000,,2013-08-13 02:52:00,
2013-08-12 20:02:00,100.0,42.0,-100.00,WNW,292,5.0,8.0,14,0.00,,,0.00,100.000000,,2013-08-13 03:02:00,
2013-08-12 20:11:00,100.0,42.0,-100.00,WNW,292,5.0,8.0,14,0.00,,,0.00,100.000000,,2013-08-13 03:11:00,
2013-08-12 20:43:00,96.0,39.0,-100.00,South,178,7.0,9.0,14,0.00,,,0.00,3.000000,,2013-08-13 03:43:00,
2013-08-12 20:54:00,96.0,39.0,-100.00,South,178,7.0,9.0,14,0.00,,,0.00,3.000000,,2013-08-13 03:54:00,
2013-08-12 21:03:00,96.0,39.0,-100.00,South,178,7.0,9.0,14,0.00,,,0.00,3.000000,,2013-08-13 04:03:00,
2013-08-12 21:12:00,96.0,39.0,-100.00,South,178,7.0,9.0,14,0.00,,,0.00,3.000000,,2013-08-13 04:12:00,
2013-08-12 21:42:00,91.0,42.0,-100.00,South,186,7.0,9.0,18,0.00,,,0.00,1.000000,,2013-08-13 04:42:00,
2013-08-12 21:53:00,91.0,42.0,-100.00,South,186,7.0,9.0,18,0.00,,,0.00,1.000000,,2013-08-13 04:53:00,
2013-08-12 22:02:00,91.0,42.0,-100.00,South,186,7.0,9.0,18,0.00,,,0.00,1.000000,,2013-08-13 05:02:00,
2013-08-12 22:12:00,91.0,42.0,-100.00,South,186,7.0,9.0,18,0.00,,,0.00,1.000000,,2013-08-13 05:12:00,
2013-08-12 22:42:00,87.0,48.0,-100.00,South,169,6.0,9.0,26,0.00,,,0.00,1.000000,,2013-08-13 05:42:00,
2013-08-12 22:52:00,87.0,48.0,-100.00,South,169,6.0,9.0,26,0.00,,,0.00,1.000000,,2013-08-13 05:52:00,
2013-08-12 23:01:00,87.0,48.0,-100.00,South,169,6.0,9.0,26,0.00,,,0.00,1.000000,,2013-08-13 06:01:00,
2013-08-12 23:11:00,87.0,48.0,-100.00,South,169,6.0,9.0,26,0.00,,,0.00,1.000000,,2013-08-13 06:11:00,
2013-08-12 23:42:00,84.0,45.0,-100.00,SE,139,6.0,11.0,26,0.00,,,0.00,1.000000,,2013-08-13 06:42:00,
2013-08-12 23:52:00,84.0,45.0,-100.00,SE,139,6.0,11.0,26,0.00,,,0.00,1.000000,,2013-08-13 06:52:00,